Location: Newark
(21.1200°N, 73.4000°E)
Time: 10:47:20
(UTC+00:00)

Vanguard 2 Rocket - Pass Details

Date: 19 January 2020
Orbit: 553 x 3327 km, 32.9° (Epoch: 26 February)

Event Time Altitude Azimuth Distance (km) Brightness Sun altitude
Exits shadow 23:35:23 51° 86° (E) 878 7.0 -30.1°
Drops below altitude 10° 23:39:56 10° 66° (ENE) 2,589 9.9 -29.0°
Sets 23:43:12 0° 65° (ENE) 3,904 10.9 -28.3°
